Location: Chassagnes
(44.4047°N, 4.1657°E)
Time: 12:53:10
(UTC+00:00)

Cosmos 1315 Rocket - Pass Details

Date: 27 October 2020
Orbit: 530 x 567 km, 81.2° (Epoch: 23 November)

Event Time Altitude Azimuth Distance (km) Brightness Sun altitude
Rises 17:49:14 0° 162° (SSE) 2,671 6.2 -13.0°
Reaches altitude 10° 17:51:34 10° 150° (SSE) 1,791 5.2 -13.5°
Maximum altitude 17:54:55 27° 92° (E) 1,055 3.7 -14.1°
Enters shadow 17:56:40 20° 52° (NE) 1,301 4.2 -14.4°
